Beaufort, NC

3:38 PM EDT on October 18, 2017 (GMT -0400)
Smith

Weather History for KMRH - December, 2012

Change the Weather History Date:

Monday, December 24, 2012

  Actual Average Record
Temperature  
Mean Temperature 54 °F -  
Max Temperature 61 °F 56 °F 73 °F (2015)
Min Temperature 48 °F 39 °F 14 °F (1989)
Degree Days  
Heating Degree Days 10    
Growing Degree Days 4 (Base 50)    
Moisture  
Dew Point 43 °F    
Average Humidity 67    
Maximum Humidity 96    
Minimum Humidity 51    
Precipitation  
Precipitation 0.02 in - - ()
Sea Level Pressure  
Sea Level Pressure 30.02 in    
Wind  
Wind Speed 7 mph (SW)    
Max Wind Speed 12 mph    
Max Gust Speed -    
Visibility 10 miles    
Events Rain    
Averages and records for this station are not official NWS values.
T = Trace of Precipitation, MM = Missing Value Source: NWS Daily Summary

Daily Weather History Graph

Daily Weather History Graph

Search for Another Location

Airport or City:

Trip Planner

Search our weather history database for the weather conditions in past years. The results will help you decide how hot, cold, wet, or windy it might be!

Date:

Astronomy

Dec. 24, 2012 Rise Set
Actual Time 7:11 AM EST 5:01 PM EST
Civil Twilight 6:43 AM EST 5:29 PM EST
Nautical Twilight 6:11 AM EST 6:01 PM EST
Astronomical Twilight 5:41 AM EST 6:31 PM EST
Moon 2:24 PM EST (12/24) 3:51 AM EST (12/24)
Length of Visible Light 10h 45m
Length of Day
9h 49m
Waxing Gibbous, 88% of the Moon is Illuminated
Dec 24
Waxing Gibbous
Dec 28
Full
Jan 4
Last Quarter
Jan 11
New
Jan 18
First Quarter

Hourly Weather History & Observations

Time (EST) Temp. Dew Point Humidity Pressure Visibility Wind Dir Wind Speed Gust Speed Precip Events Conditions
12:58 AM 48.0 °F 36.0 °F 63% 30.07 in 10.0 mi West 8.1 mph - N/A   Clear
1:58 AM 48.9 °F 37.9 °F 66% 30.09 in 10.0 mi WSW 6.9 mph - N/A   Clear
2:58 AM 50.0 °F 37.9 °F 63% 30.07 in 10.0 mi West 5.8 mph - N/A   Clear
3:58 AM 48.9 °F 36.0 °F 61% 30.06 in 10.0 mi West 5.8 mph - N/A   Clear
4:58 AM 48.0 °F 36.0 °F 63% 30.06 in 10.0 mi WSW 5.8 mph - N/A   Clear
5:58 AM 50.0 °F 39.9 °F 68% 30.07 in 10.0 mi WSW 4.6 mph - N/A   Clear
6:58 AM 50.0 °F 42.1 °F 74% 30.08 in 10.0 mi WSW 3.5 mph - N/A   Partly Cloudy
7:58 AM 50.0 °F 41.0 °F 71% 30.08 in 10.0 mi West 4.6 mph - N/A   Clear
8:58 AM 53.1 °F 41.0 °F 64% 30.09 in 10.0 mi SW 5.8 mph - N/A   Clear
9:58 AM 57.0 °F 44.1 °F 62% 30.09 in 10.0 mi South 8.1 mph - N/A   Clear
10:58 AM 59.0 °F 45.0 °F 60% 30.08 in 10.0 mi SW 11.5 mph - N/A   Clear
11:58 AM 60.1 °F 42.1 °F 51% 30.04 in 10.0 mi SW 11.5 mph - N/A   Clear
12:58 PM 61.0 °F 43.0 °F 52% 30.01 in 10.0 mi WSW 8.1 mph - N/A   Clear
1:58 PM 60.1 °F 43.0 °F 53% 29.99 in 10.0 mi WSW 9.2 mph - N/A   Partly Cloudy
2:58 PM 57.9 °F 41.0 °F 53% 29.99 in 10.0 mi SW 6.9 mph - N/A   Clear
3:58 PM 57.0 °F 42.1 °F 57% 29.98 in 10.0 mi SSW 6.9 mph - N/A   Clear
4:58 PM 55.0 °F 44.1 °F 67% 29.97 in 10.0 mi South 4.6 mph - N/A   Clear
6:58 PM 55.0 °F 46.9 °F 74% 29.95 in 10.0 mi South 5.8 mph - N/A   Scattered Clouds
7:58 PM 55.9 °F 48.0 °F 75% 29.96 in 10.0 mi SSW 11.5 mph - N/A   Overcast
8:58 PM 55.9 °F 48.0 °F 75% 29.96 in 10.0 mi SW 11.5 mph - 0.00 in Rain Light Rain
9:58 PM 54.0 °F 48.9 °F 83% 29.98 in 10.0 mi West 6.9 mph - 0.02 in Rain Light Rain
10:58 PM 52.0 °F 50.0 °F 93% 29.94 in 10.0 mi Calm Calm - 0.00 in   Overcast
11:58 PM 50.0 °F 48.9 °F 96% 29.95 in 10.0 mi Calm Calm - N/A   Mostly Cloudy